Weather History for Moron de la Frontera, Spain

Change the Weather History Date:

Sunday, October 28, 2012

  Actual Average Record
Temperature  
Mean Temperature 58 °F -  
Max Temperature 64 °F 66 °F 86 °F (2002)
Min Temperature 51 °F 48 °F 46 °F (2010)
Degree Days  
Heating Degree Days 8    
Growing Degree Days 8 (Base 50)    
Moisture  
Dew Point 46 °F    
Average Humidity 68    
Maximum Humidity 100    
Minimum Humidity 40    
Precipitation  
Precipitation 0.00 in - - ()
Sea Level Pressure  
Sea Level Pressure 29.94 in    
Wind  
Wind Speed 9 mph ()    
Max Wind Speed 20 mph    
Max Gust Speed -    
Visibility 6.2 miles    
Events      
Averages and records for this station are not official NWS values.
T = Trace of Precipitation, MM = Missing Value Source: Averaged Metar Reports

Daily Weather History Graph

Daily Weather History Graph

Search for Another Location

Airport:

Trip Planner

Search our weather history database for the weather conditions in past years. The results will help you decide how hot, cold, wet, or windy it might be!

Date:

Astronomy

Oct. 28, 2012 Rise Set
Actual Time 7:43 AM CET 6:28 PM CET
Civil Twilight 7:16 AM CET 6:55 PM CET
Nautical Twilight 6:45 AM CET 7:26 PM CET
Astronomical Twilight 6:15 AM CET 7:56 PM CET
Moon 5:38 PM CET (10/28) 6:23 AM CET (10/28)
Length of Visible Light 11h 39m
Length of Day
10h 45m
Waxing Gibbous, 98% of the Moon is Illuminated
Oct 28
Waxing Gibbous
Oct 29
Full
Nov 7
Last Quarter
Nov 13
New
Nov 20
First Quarter

Hourly Weather History & Observations

Time (CET) Temp. Dew Point Humidity Pressure Visibility Wind Dir Wind Speed Gust Speed Precip Events Conditions
12:00 AM 60.8 °F 59.0 °F 94% 29.83 in 6.2 mi SSW 6.9 mph - N/A   Partly Cloudy
1:00 AM 60.8 °F 59.0 °F 94% 29.83 in 6.2 mi SW 6.9 mph - N/A   Partly Cloudy
2:00 AM 59.0 °F 57.2 °F 94% 29.83 in - SSW 6.9 mph - N/A   Clear
2:00 AM 57.2 °F 57.2 °F 100% 29.86 in - SSW 4.6 mph - N/A   Clear
3:00 AM 59.0 °F 59.0 °F 100% 29.86 in - Variable 2.3 mph - N/A   Clear
4:00 AM 59.0 °F 59.0 °F 100% 29.86 in 6.2 mi Calm Calm - N/A   Scattered Clouds
5:00 AM 59.0 °F 48.2 °F 67% 29.89 in 6.2 mi ENE 15.0 mph - N/A   Scattered Clouds
6:00 AM 55.4 °F 46.4 °F 72% 29.92 in 6.2 mi ENE 12.7 mph - N/A   Scattered Clouds
7:00 AM 53.6 °F 42.8 °F 67% 29.92 in 6.2 mi NE 16.1 mph - N/A   Partly Cloudy
8:00 AM 53.6 °F 41.0 °F 62% 29.95 in - ENE 15.0 mph - N/A   Clear
9:00 AM 53.6 °F 39.2 °F 58% 29.98 in - ENE 19.6 mph - N/A   Clear
10:00 AM 53.6 °F 37.4 °F 54% 30.01 in - NE 19.6 mph - N/A   Clear
11:00 AM 55.4 °F 41.0 °F 58% 30.01 in - NE 19.6 mph - N/A   Clear
12:00 PM 57.2 °F 41.0 °F 55% 30.01 in - NE 18.4 mph - N/A   Clear
1:00 PM 60.8 °F 41.0 °F 48% 30.01 in - ENE 16.1 mph - N/A   Clear
2:00 PM 62.6 °F 39.2 °F 42% 29.98 in 6.2 mi ENE 16.1 mph - N/A   Partly Cloudy
3:00 PM 64.4 °F 39.2 °F 40% 29.98 in 6.2 mi ENE 16.1 mph - N/A   Partly Cloudy
5:00 PM 64.4 °F 41.0 °F 42% 29.98 in 6.2 mi ENE 10.4 mph - N/A   Partly Cloudy
6:00 PM 62.6 °F 42.8 °F 48% 29.98 in 6.2 mi NE 5.8 mph - N/A   Partly Cloudy
7:00 PM 57.2 °F 44.6 °F 63% 30.01 in 6.2 mi NE 5.8 mph - N/A   Partly Cloudy
8:00 PM 55.4 °F 42.8 °F 63% 30.01 in - NE 2.3 mph - N/A   Clear
9:00 PM 51.8 °F 44.6 °F 76% 30.01 in - Variable 2.3 mph - N/A   Clear
10:00 PM 51.8 °F 44.6 °F 76% 30.01 in - Variable 2.3 mph - N/A   Clear